Tracking 22124 objects as of 25-Jan-2021
HD Live streaming from Space Station
objects crossing your sky now

STARLINK-1803

Track STARLINK-1803 now!
10-day predictions
STARLINK-1803 is classified as:


NORAD ID: 46703
Int'l Code: 2020-073AK
Perigee: 553.0 km
Apogee: 555.8 km
Inclination: 53.1 °
Period: 95.6 minutes
Semi major axis: 6925 km
RCS: Unknown
Launch date: October 18, 2020
Source: United States (US)
Launch site: AIR FORCE EASTERN TEST RANGE (AFETR)
aabbcc
Your satellite tracking list
Your tracking list is empty




NASA's NSSDC Master Catalog

Two Line Element Set (TLE):
1 46703U 20073AK  21024.91667824  .00009236  00000-0  63840-3 0  9998
2 46703  53.0529 355.3485 0002056  77.1466 101.9584 15.06383525 15791
Source of the keplerian elements: AFSPC